﻿測定場所 (Monitoring sites),日付 (Measurement date),時間 (Measurement time),線量率 最大値 (max) μGy/h,線量率 最小値 (min) μGy/h,線量率 平均値 (average) μGy/h,
江戸川 (Edogawa),2013-07-28,23:01～24:00,0.0949,0.0843,0.0899,
江戸川 (Edogawa),2013-07-28,22:01～23:00,0.0987,0.0838,0.0909,
江戸川 (Edogawa),2013-07-28,21:01～22:00,0.0962,0.0863,0.0908,
江戸川 (Edogawa),2013-07-28,20:01～21:00,0.0965,0.0863,0.0911,
江戸川 (Edogawa),2013-07-28,19:01～20:00,0.0994,0.0855,0.0945,
江戸川 (Edogawa),2013-07-28,18:01～19:00,0.102,0.0858,0.0935,
江戸川 (Edogawa),2013-07-28,17:01～18:00,0.0961,0.0849,0.0905,
江戸川 (Edogawa),2013-07-28,16:01～17:00,0.0983,0.0851,0.0904,
江戸川 (Edogawa),2013-07-28,15:01～16:00,0.0946,0.0839,0.0904,
江戸川 (Edogawa),2013-07-28,14:01～15:00,0.0955,0.0859,0.0902,
江戸川 (Edogawa),2013-07-28,13:01～14:00,0.0962,0.0862,0.0907,
江戸川 (Edogawa),2013-07-28,12:01～13:00,0.0972,0.0849,0.0901,
江戸川 (Edogawa),2013-07-28,11:01～12:00,0.0959,0.0852,0.0898,
江戸川 (Edogawa),2013-07-28,10:01～11:00,0.0943,0.0837,0.0900,
江戸川 (Edogawa),2013-07-28,09:01～10:00,0.0957,0.0853,0.0897,
江戸川 (Edogawa),2013-07-28,08:01～09:00,0.0951,0.0829,0.0892,
江戸川 (Edogawa),2013-07-28,07:01～08:00,0.0957,0.0842,0.0896,
江戸川 (Edogawa),2013-07-28,06:01～07:00,0.0968,0.0841,0.0898,
江戸川 (Edogawa),2013-07-28,05:01～06:00,0.0937,0.0850,0.0889,
江戸川 (Edogawa),2013-07-28,04:01～05:00,0.0952,0.0839,0.0892,
江戸川 (Edogawa),2013-07-28,03:01～04:00,0.0953,0.0840,0.0892,
江戸川 (Edogawa),2013-07-28,02:01～03:00,0.0953,0.0827,0.0895,
江戸川 (Edogawa),2013-07-28,01:01～02:00,0.0964,0.0842,0.0906,
江戸川 (Edogawa),2013-07-28,00:01～01:00,0.0957,0.0831,0.0899,
江戸川 (Edogawa),2013-07-27,23:01～24:00,0.0981,0.0853,0.0924,
江戸川 (Edogawa),2013-07-27,22:01～23:00,0.103,0.0898,0.0969,
江戸川 (Edogawa),2013-07-27,21:01～22:00,0.113,0.0917,0.103,
江戸川 (Edogawa),2013-07-27,20:01～21:00,0.118,0.0949,0.108,
江戸川 (Edogawa),2013-07-27,19:01～20:00,0.100,0.0882,0.0935,
江戸川 (Edogawa),2013-07-27,18:01～19:00,0.0996,0.0879,0.0929,
江戸川 (Edogawa),2013-07-27,17:01～18:00,0.0982,0.0852,0.0922,
江戸川 (Edogawa),2013-07-27,16:01～17:00,0.0980,0.0883,0.0933,
江戸川 (Edogawa),2013-07-27,15:01～16:00,0.0992,0.0872,0.0932,
江戸川 (Edogawa),2013-07-27,14:01～15:00,0.0976,0.0850,0.0921,
江戸川 (Edogawa),2013-07-27,13:01～14:00,0.0966,0.0871,0.0924,
江戸川 (Edogawa),2013-07-27,12:01～13:00,0.0989,0.0883,0.0932,
江戸川 (Edogawa),2013-07-27,11:01～12:00,0.0995,0.0866,0.0932,
江戸川 (Edogawa),2013-07-27,10:01～11:00,0.0991,0.0847,0.0923,
江戸川 (Edogawa),2013-07-27,09:01～10:00,0.0995,0.0870,0.0922,
江戸川 (Edogawa),2013-07-27,08:01～09:00,0.0992,0.0861,0.0923,
江戸川 (Edogawa),2013-07-27,07:01～08:00,0.0978,0.0855,0.0923,
江戸川 (Edogawa),2013-07-27,06:01～07:00,0.0975,0.0882,0.0924,
江戸川 (Edogawa),2013-07-27,05:01～06:00,0.100,0.0863,0.0928,
江戸川 (Edogawa),2013-07-27,04:01～05:00,0.0974,0.0863,0.0926,
江戸川 (Edogawa),2013-07-27,03:01～04:00,0.101,0.0872,0.0927,
江戸川 (Edogawa),2013-07-27,02:01～03:00,0.0996,0.0874,0.0932,
江戸川 (Edogawa),2013-07-27,01:01～02:00,0.0975,0.0868,0.0920,
江戸川 (Edogawa),2013-07-27,00:01～01:00,0.0966,0.0879,0.0923,
江戸川 (Edogawa),2013-07-26,23:01～24:00,0.0963,0.0869,0.0921,
江戸川 (Edogawa),2013-07-26,22:01～23:00,0.0981,0.0861,0.0919,
江戸川 (Edogawa),2013-07-26,21:01～22:00,0.0999,0.0867,0.0926,
江戸川 (Edogawa),2013-07-26,20:01～21:00,0.0988,0.0856,0.0922,
江戸川 (Edogawa),2013-07-26,19:01～20:00,0.100,0.0862,0.0919,
江戸川 (Edogawa),2013-07-26,18:01～19:00,0.0973,0.0857,0.0914,
江戸川 (Edogawa),2013-07-26,17:01～18:00,0.0978,0.0853,0.0926,
江戸川 (Edogawa),2013-07-26,16:01～17:00,0.0979,0.0869,0.0918,
江戸川 (Edogawa),2013-07-26,15:01～16:00,0.0978,0.0862,0.0920,
江戸川 (Edogawa),2013-07-26,14:01～15:00,0.0959,0.0879,0.0917,
江戸川 (Edogawa),2013-07-26,13:01～14:00,0.0983,0.0839,0.0912,
江戸川 (Edogawa),2013-07-26,12:01～13:00,0.0975,0.0861,0.0913,
江戸川 (Edogawa),2013-07-26,11:01～12:00,0.0992,0.0846,0.0913,
江戸川 (Edogawa),2013-07-26,10:01～11:00,0.0956,0.0848,0.0906,
江戸川 (Edogawa),2013-07-26,09:01～10:00,0.0973,0.0862,0.0906,
江戸川 (Edogawa),2013-07-26,08:01～09:00,0.101,0.0863,0.0907,
江戸川 (Edogawa),2013-07-26,07:01～08:00,0.0991,0.0857,0.0917,
江戸川 (Edogawa),2013-07-26,06:01～07:00,0.0967,0.0837,0.0917,
江戸川 (Edogawa),2013-07-26,05:01～06:00,0.100,0.0849,0.0918,
江戸川 (Edogawa),2013-07-26,04:01～05:00,0.0975,0.0842,0.0908,
江戸川 (Edogawa),2013-07-26,03:01～04:00,0.0975,0.0829,0.0906,
江戸川 (Edogawa),2013-07-26,02:01～03:00,0.0963,0.0837,0.0911,
江戸川 (Edogawa),2013-07-26,01:01～02:00,0.0985,0.0835,0.0912,
江戸川 (Edogawa),2013-07-26,00:01～01:00,0.0970,0.0833,0.0903,
江戸川 (Edogawa),2013-07-25,23:01～24:00,0.0976,0.0863,0.0907,
江戸川 (Edogawa),2013-07-25,22:01～23:00,0.0989,0.0856,0.0913,
江戸川 (Edogawa),2013-07-25,21:01～22:00,0.0992,0.0837,0.0908,
江戸川 (Edogawa),2013-07-25,20:01～21:00,0.0976,0.0863,0.0911,
江戸川 (Edogawa),2013-07-25,19:01～20:00,0.0973,0.0830,0.0904,
江戸川 (Edogawa),2013-07-25,18:01～19:00,0.0979,0.0853,0.0912,
江戸川 (Edogawa),2013-07-25,17:01～18:00,0.0965,0.0856,0.0901,
江戸川 (Edogawa),2013-07-25,16:01～17:00,0.0953,0.0847,0.0904,
江戸川 (Edogawa),2013-07-25,15:01～16:00,0.0981,0.0818,0.0907,
江戸川 (Edogawa),2013-07-25,14:01～15:00,0.0972,0.0854,0.0910,
江戸川 (Edogawa),2013-07-25,13:01～14:00,0.0977,0.0854,0.0913,
江戸川 (Edogawa),2013-07-25,12:01～13:00,0.0960,0.0826,0.0898,
江戸川 (Edogawa),2013-07-25,11:01～12:00,0.0959,0.0853,0.0903,
江戸川 (Edogawa),2013-07-25,10:01～11:00,0.0954,0.0827,0.0899,
江戸川 (Edogawa),2013-07-25,09:01～10:00,0.0950,0.0831,0.0898,
江戸川 (Edogawa),2013-07-25,08:01～09:00,0.0963,0.0838,0.0899,
江戸川 (Edogawa),2013-07-25,07:01～08:00,0.0952,0.0847,0.0900,
江戸川 (Edogawa),2013-07-25,06:01～07:00,0.0977,0.0834,0.0898,
江戸川 (Edogawa),2013-07-25,05:01～06:00,0.0987,0.0849,0.0898,
江戸川 (Edogawa),2013-07-25,04:01～05:00,0.0953,0.0847,0.0902,
江戸川 (Edogawa),2013-07-25,03:01～04:00,0.0976,0.0845,0.0898,
江戸川 (Edogawa),2013-07-25,02:01～03:00,0.0976,0.0836,0.0900,
江戸川 (Edogawa),2013-07-25,01:01～02:00,0.0966,0.0846,0.0897,
江戸川 (Edogawa),2013-07-25,00:01～01:00,0.0942,0.0838,0.0902,
江戸川 (Edogawa),2013-07-24,23:01～24:00,0.0979,0.0850,0.0909,
江戸川 (Edogawa),2013-07-24,22:01～23:00,0.0965,0.0822,0.0901,
江戸川 (Edogawa),2013-07-24,21:01～22:00,0.0953,0.0836,0.0898,
江戸川 (Edogawa),2013-07-24,20:01～21:00,0.100,0.0847,0.0910,
江戸川 (Edogawa),2013-07-24,19:01～20:00,0.0989,0.0879,0.0923,
江戸川 (Edogawa),2013-07-24,18:01～19:00,0.0994,0.0879,0.0939,
江戸川 (Edogawa),2013-07-24,17:01～18:00,0.102,0.0898,0.0954,
江戸川 (Edogawa),2013-07-24,16:01～17:00,0.102,0.0883,0.0952,
江戸川 (Edogawa),2013-07-24,15:01～16:00,0.102,0.0885,0.0956,
江戸川 (Edogawa),2013-07-24,14:01～15:00,0.0986,0.0876,0.0932,
江戸川 (Edogawa),2013-07-24,13:01～14:00,0.0981,0.0868,0.0911,
江戸川 (Edogawa),2013-07-24,12:01～13:00,0.0978,0.0865,0.0913,
江戸川 (Edogawa),2013-07-24,11:01～12:00,0.0986,0.0860,0.0915,
江戸川 (Edogawa),2013-07-24,10:01～11:00,0.0983,0.0851,0.0918,
江戸川 (Edogawa),2013-07-24,09:01～10:00,0.0973,0.0859,0.0919,
江戸川 (Edogawa),2013-07-24,08:01～09:00,0.0948,0.0854,0.0907,
江戸川 (Edogawa),2013-07-24,07:01～08:00,0.0972,0.0855,0.0909,
江戸川 (Edogawa),2013-07-24,06:01～07:00,0.0958,0.0839,0.0911,
江戸川 (Edogawa),2013-07-24,05:01～06:00,0.104,0.0837,0.0907,
江戸川 (Edogawa),2013-07-24,04:01～05:00,0.0975,0.0876,0.0916,
江戸川 (Edogawa),2013-07-24,03:01～04:00,0.0978,0.0865,0.0910,
江戸川 (Edogawa),2013-07-24,02:01～03:00,0.0963,0.0853,0.0907,
江戸川 (Edogawa),2013-07-24,01:01～02:00,0.0967,0.0853,0.0905,
江戸川 (Edogawa),2013-07-24,00:01～01:00,0.0966,0.0823,0.0904,
江戸川 (Edogawa),2013-07-23,23:01～24:00,0.0963,0.0832,0.0907,
江戸川 (Edogawa),2013-07-23,22:01～23:00,0.0970,0.0861,0.0914,
江戸川 (Edogawa),2013-07-23,21:01～22:00,0.0984,0.0861,0.0930,
江戸川 (Edogawa),2013-07-23,20:01～21:00,0.105,0.0902,0.0980,
江戸川 (Edogawa),2013-07-23,19:01～20:00,0.110,0.0941,0.101,
江戸川 (Edogawa),2013-07-23,18:01～19:00,0.101,0.0875,0.0946,
江戸川 (Edogawa),2013-07-23,17:01～18:00,0.101,0.0887,0.0941,
江戸川 (Edogawa),2013-07-23,16:01～17:00,0.100,0.0854,0.0933,
江戸川 (Edogawa),2013-07-23,15:01～16:00,0.100,0.0882,0.0942,
江戸川 (Edogawa),2013-07-23,14:01～15:00,0.100,0.0880,0.0938,
江戸川 (Edogawa),2013-07-23,13:01～14:00,0.0994,0.0882,0.0941,
江戸川 (Edogawa),2013-07-23,12:01～13:00,0.100,0.0879,0.0946,
江戸川 (Edogawa),2013-07-23,11:01～12:00,0.102,0.0888,0.0945,
江戸川 (Edogawa),2013-07-23,10:01～11:00,0.0991,0.0872,0.0953,
江戸川 (Edogawa),2013-07-23,09:01～10:00,0.100,0.0890,0.0938,
江戸川 (Edogawa),2013-07-23,08:01～09:00,0.0988,0.0876,0.0936,
江戸川 (Edogawa),2013-07-23,07:01～08:00,0.0989,0.0856,0.0932,
江戸川 (Edogawa),2013-07-23,06:01～07:00,0.0988,0.0868,0.0938,
江戸川 (Edogawa),2013-07-23,05:01～06:00,0.106,0.0855,0.0937,
江戸川 (Edogawa),2013-07-23,04:01～05:00,0.0992,0.0892,0.0940,
江戸川 (Edogawa),2013-07-23,03:01～04:00,0.0998,0.0863,0.0941,
江戸川 (Edogawa),2013-07-23,02:01～03:00,0.100,0.0874,0.0936,
江戸川 (Edogawa),2013-07-23,01:01～02:00,0.0990,0.0887,0.0943,
江戸川 (Edogawa),2013-07-23,00:01～01:00,0.0997,0.0887,0.0939,
江戸川 (Edogawa),2013-07-22,23:01～24:00,0.0989,0.0880,0.0936,
江戸川 (Edogawa),2013-07-22,22:01～23:00,0.101,0.0879,0.0939,
江戸川 (Edogawa),2013-07-22,21:01～22:00,0.100,0.0887,0.0936,
江戸川 (Edogawa),2013-07-22,20:01～21:00,0.100,0.0902,0.0947,
江戸川 (Edogawa),2013-07-22,19:01～20:00,0.100,0.0873,0.0951,
江戸川 (Edogawa),2013-07-22,18:01～19:00,0.100,0.0886,0.0937,
江戸川 (Edogawa),2013-07-22,17:01～18:00,0.0977,0.0877,0.0935,
江戸川 (Edogawa),2013-07-22,16:01～17:00,0.0993,0.0885,0.0936,
江戸川 (Edogawa),2013-07-22,15:01～16:00,0.100,0.0872,0.0935,
江戸川 (Edogawa),2013-07-22,14:01～15:00,0.0984,0.0881,0.0931,
江戸川 (Edogawa),2013-07-22,13:01～14:00,0.0996,0.0867,0.0930,
江戸川 (Edogawa),2013-07-22,12:01～13:00,0.0984,0.0870,0.0931,
江戸川 (Edogawa),2013-07-22,11:01～12:00,0.0988,0.0884,0.0933,
江戸川 (Edogawa),2013-07-22,10:01～11:00,0.100,0.0833,0.0930,
江戸川 (Edogawa),2013-07-22,09:01～10:00,0.102,0.0858,0.0927,
江戸川 (Edogawa),2013-07-22,08:01～09:00,0.100,0.0881,0.0935,
江戸川 (Edogawa),2013-07-22,07:01～08:00,0.0997,0.0886,0.0938,
江戸川 (Edogawa),2013-07-22,06:01～07:00,0.0984,0.0865,0.0930,
江戸川 (Edogawa),2013-07-22,05:01～06:00,0.0993,0.0883,0.0930,
江戸川 (Edogawa),2013-07-22,04:01～05:00,0.100,0.0861,0.0929,
江戸川 (Edogawa),2013-07-22,03:01～04:00,0.0982,0.0855,0.0927,
江戸川 (Edogawa),2013-07-22,02:01～03:00,0.0985,0.0880,0.0937,
江戸川 (Edogawa),2013-07-22,01:01～02:00,0.100,0.0871,0.0928,
江戸川 (Edogawa),2013-07-22,00:01～01:00,0.0995,0.0883,0.0933,
